Wind_Speed
11 10 10 10 10 10 9 9 9 9 10 9 9 9 9 10 9 8 8 8 9 9 10 11 11 11 11 12 12 14 16 15 12 11 14 12 8 9 4 8 16 19 20 16 17 18 15 15 14 13 11 9 7 6 8 7 5 5 6 8 7 8 6 4 5 2 1 4 5 4 6 6 2 3 3 5 6 8 9 6 7 7 7 10 14 18 22 22
12 11 10 10 10 10 9 9 9 9 10 9 9 9 9 9 9 8 8 9 9 9 10 11 11 11 11 12 12 14 15 14 14 15 16 11 7 9 8 9 16 22 20 17 20 20 16 14 14 14 10 7 7 7 8 7 6 7 6 7 8 7 3 1 2 2 1 3 4 4 5 6 4 2 2 6 9 10 9 9 8 9 11 12 14 17 21 22
13 12 11 10 11 10 9 9 9 9 10 10 9 9 9 9 9 9 8 8 9 9 10 10 10 10 10 11 12 13 13 14 12 9 6 5 7 11 10 13 18 23 19 15 19 19 15 14 15 15 10 8 7 8 9 7 7 8 7 7 8 5 3 2 2 2 2 5 5 3 4 3 4 3 2 5 9 11 9 9 9 10 12 13 13 16 21 22
14 13 12 11 11 10 10 9 9 10 9 10 9 9 9 9 9 9 9 9 8 8 9 10 10 10 10 11 12 11 11 11 4 3 1 3 5 13 13 16 21 22 15 10 15 14 12 13 15 14 10 8 7 8 10 8 7 6 7 9 5 3 5 4 3 3 2 4 5 5 4 1 4 4 3 5 9 9 9 9 8 10 14 15 15 16 19 20
14 14 14 13 12 11 10 10 10 10 9 10 9 9 9 8 8 8 9 9 9 8 9 10 9 10 10 11 11 8 8 5 3 5 1 4 3 14 16 18 23 21 12 9 12 12 11 13 13 12 9 8 9 9 10 11 7 5 9 11 5 2 6 3 2 2 2 3 5 5 5 3 3 3 2 6 8 5 4 5 4 8 14 16 16 16 18 18
14 14 14 13 13 11 10 10 10 10 10 9 9 9 9 9 8 8 8 8 9 8 8 9 9 9 9 10 9 7 6 2 3 2 3 5 2 15 16 18 23 18 11 11 13 12 13 13 12 11 9 9 11 11 10 11 8 7 9 10 7 6 6 3 1 1 2 5 6 5 5 5 5 4 1 7 5 5 5 2 2 8 14 16 17 16 17 17
14 14 14 13 13 12 11 10 10 10 10 9 9 9 9 8 8 8 8 8 8 8 8 8 8 8 8 8 6 6 8 3 2 2 4 3 7 16 16 19 22 17 13 14 14 13 13 14 13 11 10 9 11 12 10 10 10 10 8 7 9 8 8 8 5 3 4 7 6 5 6 5 6 3 1 6 3 4 3 1 2 9 15 16 15 15 16 17
14 14 14 13 13 13 12 11 10 9 9 9 9 8 9 8 8 8 8 8 7 7 8 7 7 7 7 6 5 6 7 1 3 3 3 4 12 18 19 19 18 16 15 15 13 13 12 14 14 10 10 10 9 11 10 10 11 13 11 6 7 8 8 10 8 7 7 7 6 6 8 6 5 4 4 5 3 3 2 3 6 11 15 15 14 16 15 14
14 14 14 13 13 13 12 12 11 10 9 9 8 8 8 8 8 8 7 7 6 7 7 7 8 6 5 5 7 6 2 4 6 2 1 9 17 21 20 16 17 16 15 14 12 12 10 11 12 9 9 8 9 11 11 10 9 11 14 9 7 9 8 10 10 10 8 6 5 7 9 5 2 4 6 6 4 3 4 6 9 13 14 14 13 14 14 14
14 14 14 14 13 13 12 12 12 10 9 8 8 8 8 8 8 7 7 7 6 7 7 7 7 4 4 6 8 5 4 6 6 5 4 12 19 22 18 14 17 16 13 12 11 11 8 8 9 7 7 6 9 10 11 11 4 5 12 10 9 10 9 9 10 10 8 6 7 9 9 4 3 5 6 6 5 5 6 8 10 12 13 13 13 13 13 13
15 14 14 14 13 13 13 12 12 11 9 8 8 8 7 7 7 7 7 7 6 6 6 6 5 3 5 6 7 4 4 3 4 5 4 12 19 20 16 14 17 15 12 11 11 11 8 6 6 5 4 5 9 9 11 10 3 2 6 8 10 11 9 10 11 10 8 7 9 9 8 4 5 8 6 7 7 6 7 8 11 11 11 12 12 13 11 11
15 15 14 14 14 14 13 13 12 12 10 8 7 7 7 7 7 6 6 6 5 5 5 5 3 3 5 7 7 4 1 1 1 3 4 10 15 14 11 13 15 12 11 11 10 10 6 4 8 8 3 4 8 7 7 8 6 5 5 7 10 10 11 13 13 10 8 6 6 6 8 7 9 11 6 6 7 7 7 9 10 10 10 11 12 11 10 11
15 15 15 14 14 14 14 13 12 13 12 9 7 7 7 6 6 6 5 4 4 4 4 3 3 3 6 6 3 4 4 3 3 2 6 9 10 9 8 10 10 9 8 9 9 9 6 5 9 8 3 5 7 4 3 7 7 7 8 8 7 8 10 13 12 9 9 5 5 7 8 9 13 14 8 7 8 8 8 9 9 9 9 10 10 10 10 12
15 15 15 15 15 14 14 13 13 13 12 10 8 7 6 5 5 5 4 4 4 5 4 2 3 3 5 5 1 5 7 4 5 6 9 11 9 7 9 10 8 7 6 6 6 8 8 6 6 5 4 5 2 4 5 7 7 8 8 7 7 7 7 11 11 10 11 5 6 9 8 8 12 14 11 8 9 9 9 9 9 9 9 9 10 10 11 12
15 15 15 16 15 15 14 14 13 13 13 10 8 7 7 6 4 3 3 3 4 4 4 4 4 4 6 6 2 4 6 4 7 9 11 13 10 8 11 12 9 7 6 4 4 6 8 8 5 5 6 3 2 6 7 7 7 8 7 7 8 7 5 10 10 11 12 6 9 11 7 8 8 12 12 9 10 10 9 9 9 9 10 10 10 10 10 10
16 16 15 16 15 15 15 14 14 13 13 12 9 8 7 5 2 1 1 2 3 2 3 4 4 5 6 2 3 2 3 5 5 7 11 12 9 8 13 13 9 8 7 5 4 6 8 9 5 3 4 6 6 8 7 6 7 7 8 8 8 9 7 7 10 12 11 6 10 12 8 8 4 9 10 9 10 11 9 9 10 10 10 10 9 10 9 9
16 16 15 16 15 15 15 14 14 13 14 13 9 6 4 1 2 2 2 2 2 2 4 4 2 5 6 2 2 3 3 2 3 7 10 10 7 10 15 12 9 9 8 7 5 7 9 8 4 3 5 6 7 8 7 7 7 7 8 8 6 9 8 6 9 10 10 8 11 12 11 10 4 6 8 9 10 11 10 10 11 10 10 10 9 10 10 10
16 16 16 16 15 15 15 14 14 13 14 13 7 2 1 2 4 2 2 3 3 4 5 3 3 4 4 4 4 2 2 1 4 7 10 9 7 12 15 10 10 11 10 9 7 8 8 6 5 5 6 7 7 8 8 7 7 8 9 8 6 7 9 7 6 9 11 11 11 12 11 12 9 5 7 9 10 11 10 9 10 10 10 11 10 10 10 10
16 16 16 16 16 16 15 15 14 13 14 12 5 2 1 2 2 3 4 5 5 4 4 3 6 5 3 3 5 2 1 2 6 8 10 11 10 12 11 10 11 12 11 9 8 9 7 6 6 6 7 8 9 10 8 4 5 8 9 9 8 7 9 8 4 6 7 9 11 11 11 12 12 9 8 9 9 10 9 8 9 10 11 11 11 11 10 11
17 16 16 16 16 16 15 15 14 14 14 10 4 2 2 2 3 3 4 7 9 10 11 7 9 10 9 5 4 3 4 6 6 7 13 14 13 12 10 11 11 10 10 9 9 7 5 7 7 8 8 9 11 9 3 2 2 4 6 7 8 6 7 9 6 6 3 6 10 11 11 11 11 11 10 10 9 10 10 10 10 10 11 11 12 12 11 11
17 17 16 16 16 16 15 15 14 15 14 7 3 5 3 5 5 2 2 7 12 14 15 13 12 13 11 5 1 3 4 6 6 8 14 15 14 12 9 11 11 9 8 8 8 5 5 7 8 8 6 5 7 4 1 2 3 4 6 7 7 7 7 7 6 5 3 5 8 9 10 11 12 11 8 10 10 10 12 12 11 12 12 11 13 13 11 10
18 17 17 17 16 16 16 15 15 15 12 4 5 7 4 4 3 4 5 8 11 12 15 15 14 13 11 9 5 3 3 6 8 9 13 14 13 10 9 11 11 9 8 7 7 6 7 8 8 7 4 4 3 3 4 6 6 6 7 6 6 7 7 6 5 4 4 5 6 7 8 10 11 9 7 10 11 10 10 11 10 11 12 11 12 12 11 11
18 17 17 17 16 16 15 14 16 15 8 5 7 8 2 1 3 4 5 8 11 10 12 13 12 11 11 11 9 8 7 9 9 11 15 14 12 10 9 11 11 9 10 10 8 7 6 6 7 7 6 5 5 5 7 6 7 8 6 7 6 7 8 5 7 7 4 3 5 4 7 8 7 7 7 9 10 7 6 7 8 9 11 11 12 11 11 12
18 17 17 17 17 17 14 15 16 10 5 7 11 9 3 2 6 6 5 7 9 6 6 7 7 9 9 6 10 14 11 9 9 11 16 16 11 9 10 12 11 8 10 12 11 8 4 4 5 7 8 8 7 7 9 7 7 9 8 9 6 6 9 5 6 6 4 4 5 6 7 7 7 9 9 8 7 7 6 7 8 8 9 10 11 11 11 12
18 18 18 18 18 16 15 13 8 3 4 9 11 8 6 5 6 4 5 6 7 3 4 5 4 6 5 5 10 13 9 9 10 10 16 17 12 10 9 8 8 8 11 12 10 9 4 7 5 7 8 9 8 8 10 9 7 8 10 11 8 7 9 5 4 5 6 6 7 7 8 5 8 10 10 8 8 9 7 8 9 9 10 10 11 11 11 12
19 18 19 18 18 17 13 6 2 2 8 8 5 5 4 8 6 5 4 5 5 1 4 5 3 5 7 7 10 10 8 10 9 10 16 17 13 9 7 6 6 7 9 10 7 6 3 6 6 7 8 10 9 8 9 10 8 6 10 13 13 10 7 6 5 6 6 4 5 5 7 4 7 10 9 8 10 11 10 8 9 10 10 11 10 11 12 12
19 18 19 17 16 15 8 4 4 6 7 2 3 2 5 10 5 6 4 5 4 0 3 3 2 5 5 8 13 9 5 8 9 10 14 16 14 9 8 8 6 5 5 5 5 5 5 7 7 8 8 9 8 7 9 11 10 4 8 13 15 11 9 8 7 7 4 1 4 6 8 4 6 9 8 7 9 11 11 10 10 9 10 11 10 11 11 12
20 19 19 17 14 11 7 7 8 8 6 2 1 5 9 8 4 6 4 5 2 1 1 2 4 3 2 7 14 7 1 9 10 10 14 16 14 9 10 10 9 8 8 7 5 4 8 11 10 11 9 7 6 4 8 13 10 2 6 8 11 10 9 8 7 7 4 2 5 8 7 7 6 7 7 8 10 11 12 12 11 10 10 11 11 11 10 11
21 20 19 17 15 11 8 9 10 9 6 6 7 9 10 4 5 4 4 3 1 1 1 2 4 5 5 8 12 7 2 5 6 7 14 15 10 6 7 7 9 8 10 11 7 4 5 6 7 11 9 5 3 1 4 13 8 3 4 5 6 7 6 6 7 7 4 6 7 7 6 7 5 7 7 8 10 9 9 9 8 8 9 9 9 9 10 9
22 20 18 16 12 7 5 10 14 12 10 10 10 10 7 5 5 5 4 2 2 1 3 3 3 5 8 10 11 8 5 3 4 9 12 11 10 7 3 2 6 6 8 11 9 1 3 1 2 8 7 1 3 3 0 7 4 1 6 8 7 7 5 5 6 5 5 8 6 6 5 6 4 7 7 5 3 2 3 5 4 3 4 6 7 7 9 9
24 21 17 13 8 4 4 6 7 6 5 6 7 6 5 5 4 6 5 1 3 2 4 4 4 5 10 11 10 9 7 4 8 12 11 9 11 9 5 4 5 6 6 8 8 7 6 5 3 5 5 2 2 3 2 3 3 4 8 8 7 7 5 6 5 5 7 7 5 5 5 7 6 5 6 6 6 6 4 2 4 4 3 3 3 5 7 8
24 20 15 12 9 9 8 5 4 5 5 7 9 5 6 5 6 7 4 1 2 2 2 2 4 4 7 10 10 11 9 6 9 13 11 10 10 9 9 8 6 7 7 7 8 8 8 9 8 6 5 6 7 5 4 4 5 6 8 8 8 7 6 7 7 7 8 4 4 4 4 7 5 4 7 7 7 6 5 4 4 4 4 4 2 3 5 6
22 17 11 6 6 10 9 8 8 11 12 11 8 5 6 7 7 7 7 5 1 2 1 0 1 1 4 8 9 11 10 7 10 12 12 12 9 10 12 10 9 8 5 6 7 7 7 9 11 9 6 9 10 6 5 6 7 9 9 8 8 7 6 7 7 7 8 4 5 3 3 6 6 5 7 7 7 6 6 5 5 5 5 3 2 2 4 6
20 12 2 2 1 5 7 9 9 8 7 6 5 7 9 9 7 5 8 9 3 1 2 1 3 4 5 7 6 10 10 8 10 11 11 11 9 9 11 10 11 10 4 5 5 6 8 7 10 11 6 9 13 10 6 6 9 10 9 8 8 6 6 6 6 7 8 5 5 5 4 6 6 4 6 6 6 6 7 7 7 7 6 4 4 4 5 5
16 4 5 4 4 5 9 10 8 4 3 5 6 8 10 9 6 5 7 7 5 5 5 3 5 7 6 6 5 9 9 7 11 11 9 11 9 8 10 9 12 11 6 6 4 5 8 5 8 7 2 7 12 10 8 7 8 8 6 7 7 6 5 3 1 1 3 4 5 6 4 2 2 4 6 5 5 8 8 9 9 9 8 7 6 6 6 6
9 3 6 2 4 6 10 8 7 6 6 6 8 9 9 8 6 5 3 2 3 4 6 6 7 8 7 6 6 9 8 6 10 11 7 9 11 10 11 9 12 13 9 6 3 4 7 4 8 7 3 6 6 4 7 7 5 6 7 8 3 2 4 3 2 3 1 6 5 5 5 3 4 4 6 5 5 9 9 10 10 10 9 8 8 7 7 6
4 4 3 5 9 11 8 6 9 9 6 7 9 9 8 8 5 3 0 1 1 2 5 6 5 5 6 6 6 9 9 7 9 9 8 9 9 9 12 9 11 15 14 10 5 4 6 4 7 7 7 5 1 3 6 5 4 4 7 7 3 0 3 4 4 3 4 8 5 6 9 7 7 5 5 5 5 9 10 10 10 9 9 9 9 8 8 8
2 4 2 9 15 12 4 7 10 9 6 7 10 9 7 7 4 2 1 0 1 2 5 6 2 2 4 5 4 6 9 9 9 8 8 8 6 6 11 9 9 14 16 14 8 3 6 5 5 5 4 6 5 6 6 4 4 4 3 5 5 4 6 6 6 5 6 8 6 7 10 9 7 5 6 4 6 8 8 8 9 9 9 8 9 9 9 8
3 4 1 10 14 8 3 8 9 7 6 8 10 8 6 7 4 3 2 2 3 3 5 4 2 2 3 3 1 3 6 7 8 8 8 8 6 3 4 4 7 12 13 14 9 4 4 6 3 4 2 4 6 7 8 8 7 3 3 5 5 4 5 5 6 6 6 7 7 7 9 7 3 3 6 5 6 7 6 7 7 8 8 7 8 8 8 7
4 3 3 9 9 6 5 4 6 6 7 8 8 5 3 5 6 5 5 4 5 5 4 3 3 3 3 3 2 1 3 5 5 7 6 7 6 2 2 1 3 6 6 9 9 5 4 5 4 4 5 4 6 6 6 6 7 7 8 8 6 4 3 4 5 6 6 7 6 7 8 4 4 5 6 5 5 5 4 4 5 7 8 8 7 7 7 7
4 2 4 10 7 3 3 4 5 5 7 6 6 6 2 2 5 5 6 5 6 5 4 5 5 5 4 3 2 1 2 4 5 6 5 6 5 2 3 3 1 3 4 7 8 6 4 5 6 5 5 6 3 3 2 4 3 5 7 10 10 7 6 6 7 7 6 7 6 7 7 2 5 4 4 5 3 2 1 3 6 8 8 8 8 7 7 7
3 1 4 12 8 5 5 4 4 2 6 4 3 5 3 3 4 4 3 5 7 6 4 6 7 7 7 6 5 3 4 5 5 6 7 6 2 2 4 2 0 2 3 4 3 0 1 3 7 7 5 3 5 6 3 3 3 4 5 7 8 9 9 9 8 7 7 7 5 6 6 2 5 4 4 4 3 4 5 6 8 8 8 9 9 9 9 8
4 3 4 12 8 5 5 3 3 3 4 2 2 3 2 3 5 6 3 3 5 5 4 5 6 6 6 5 6 6 5 5 5 4 5 6 4 5 4 1 2 1 1 2 3 2 1 3 7 8 5 3 5 5 3 1 2 6 5 4 5 6 7 6 5 3 6 8 6 6 6 3 5 4 4 5 6 7 6 7 9 8 8 9 10 10 10 10
3 2 3 12 10 3 5 2 1 3 2 1 2 3 2 1 2 4 4 1 1 2 4 4 3 3 3 2 4 5 3 4 4 2 2 3 5 4 2 0 3 1 3 3 2 1 2 2 4 7 7 6 6 6 5 4 4 4 3 1 3 3 3 3 3 3 6 9 9 9 5 4 5 4 5 7 8 8 7 8 8 9 9 9 10 10 10 10
1 0 1 8 11 5 1 3 3 3 1 1 1 0 1 2 3 4 2 3 4 3 2 2 1 2 3 3 4 4 3 3 3 1 2 3 5 5 3 1 4 4 4 5 3 2 1 2 3 4 7 7 6 5 3 3 4 2 2 2 2 3 4 4 5 7 8 7 9 10 4 6 7 6 8 8 9 9 9 9 9 9 10 9 10 10 9 10
1 2 2 3 6 6 5 5 5 3 2 1 1 4 3 2 4 4 3 3 4 4 3 2 1 3 3 3 5 5 3 3 3 1 2 3 5 4 3 3 4 5 8 10 6 4 2 2 4 4 3 3 3 4 5 3 2 3 3 3 3 3 4 5 8 9 7 7 8 5 5 10 9 9 9 7 9 10 9 10 10 10 10 10 10 10 10 10
1 2 4 3 3 4 4 6 7 6 5 4 2 3 4 1 3 3 4 3 4 4 3 4 3 2 2 3 5 4 1 3 3 1 2 2 4 5 3 4 7 7 7 9 7 4 3 1 2 6 7 6 7 7 6 4 2 4 4 4 3 3 4 5 6 5 6 8 7 5 13 13 10 9 8 8 9 9 9 9 9 9 10 10 10 11 12 12
2 2 3 4 3 5 5 6 7 8 8 5 2 5 7 7 6 5 4 3 3 4 3 4 7 4 1 2 3 2 1 3 4 3 2 3 4 6 6 5 7 6 7 8 6 5 4 4 5 5 7 7 7 8 7 6 6 6 6 6 5 4 3 1 3 7 6 4 3 8 14 13 10 9 8 8 9 9 9 9 9 10 11 11 12 13 14 14
2 3 2 2 2 5 5 5 6 7 8 6 5 8 9 10 10 8 6 3 4 7 6 5 8 9 6 2 0 2 2 2 4 4 3 3 2 3 5 5 5 3 5 7 6 4 2 5 8 9 9 8 7 8 9 8 6 6 8 8 7 8 8 7 7 8 7 7 8 13 16 13 9 9 9 9 9 8 9 9 10 11 11 12 13 14 14 14
2 2 2 1 4 5 4 4 4 4 7 8 6 8 9 10 10 8 8 7 6 7 9 7 8 9 10 9 7 7 6 5 3 4 5 3 2 2 2 2 2 1 3 5 5 4 2 5 10 10 8 7 7 7 8 7 5 5 6 6 6 9 9 8 7 6 6 9 11 14 15 11 7 8 10 9 8 9 10 11 11 11 11 12 13 13 14 14
3 2 3 1 4 4 3 4 3 3 6 7 6 6 8 10 10 7 6 9 9 8 9 9 7 5 8 13 12 10 8 6 4 4 5 4 3 3 3 3 4 2 2 3 3 4 3 6 8 8 6 6 7 6 6 7 7 7 4 2 4 5 6 6 6 5 4 6 10 10 8 7 7 8 9 9 10 12 12 12 11 10 11 12 13 13 13 13
2 0 3 2 3 4 3 4 4 4 4 4 3 3 4 7 10 7 4 6 10 10 10 10 9 4 7 12 12 10 9 8 6 5 4 3 2 2 2 3 4 4 2 1 1 3 4 6 8 7 6 6 8 7 6 6 3 4 3 2 4 4 4 5 5 6 7 4 3 4 6 9 10 9 10 11 12 12 12 11 10 10 11 12 12 12 12 13
Wind_Direction
341 334 329 322 318 316 312 308 304 306 307 304 305 305 307 308 308 309 314 314 309 306 308 307 305 309 310 310 311 310 310 305 297 270 249 255 245 223 209 183 183 167 161 162 164 168 169 182 179 177 186 181 203 198 180 199 207 206 225 230 233 232 227 229 221 237 5 87 71 43 12 338 48 114 154 180 177 139 139 128 111 105 84 91 107 125 137 140
346 341 335 324 319 318 313 308 304 304 304 302 301 303 306 304 306 308 310 313 311 309 307 306 307 309 307 309 311 311 312 301 286 269 255 262 252 216 192 180 180 167 160 167 175 176 177 182 175 179 192 183 187 179 174 184 197 216 227 230 235 239 226 242 285 314 332 12 16 25 15 346 356 59 180 191 162 150 154 141 139 125 106 108 120 134 139 141
351 345 339 329 323 320 315 309 303 304 302 299 297 300 302 302 305 303 306 307 308 312 308 306 305 305 306 308 309 313 313 299 282 256 252 283 224 197 176 175 177 168 165 178 183 185 188 183 175 183 196 196 189 183 189 179 190 221 232 235 235 243 249 228 259 270 323 336 332 355 356 345 6 358 245 195 163 169 170 150 159 150 133 132 138 147 146 147
354 348 344 337 330 324 316 311 304 304 301 297 296 295 295 299 301 301 305 302 301 305 303 305 302 304 308 305 309 318 306 285 271 132 120 358 189 178 167 170 173 169 168 183 188 194 198 185 181 192 202 202 192 194 199 178 186 215 221 241 252 247 243 214 206 241 304 323 310 325 307 308 16 332 272 200 173 181 181 158 166 163 149 145 152 158 155 155
354 350 348 342 337 330 321 315 306 302 299 298 295 292 291 292 297 300 302 301 302 298 297 301 301 307 303 302 312 312 293 265 105 84 50 358 176 171 165 170 171 168 169 182 186 193 197 187 187 196 207 206 188 196 205 189 199 223 219 242 272 256 237 196 152 244 304 300 288 295 292 341 334 273 249 220 197 160 151 146 158 161 149 149 158 162 162 164
353 352 349 345 341 335 328 319 309 304 299 298 293 292 292 291 294 293 292 297 300 298 299 302 303 307 300 305 311 279 271 291 80 32 333 356 166 165 164 169 169 170 178 181 179 186 191 188 190 196 207 211 195 199 205 189 199 230 223 229 242 240 243 234 187 229 285 278 275 291 314 333 288 251 208 242 222 89 71 55 171 156 146 150 158 165 168 171
352 352 349 348 344 338 334 325 315 309 303 299 294 292 291 292 291 287 289 290 293 299 299 301 303 303 309 312 293 242 249 280 45 323 316 346 158 160 161 164 167 174 181 181 178 183 186 187 196 200 205 210 201 201 198 183 196 229 232 211 221 232 240 253 257 245 266 273 277 298 299 283 264 257 211 242 219 104 79 6 193 149 144 151 158 169 174 174
352 350 349 347 345 343 339 333 324 313 306 301 296 293 291 291 289 285 289 287 288 298 295 300 304 301 321 317 272 243 236 273 28 307 289 160 159 157 154 156 168 177 182 185 182 185 188 193 200 201 209 210 201 199 188 188 203 225 236 215 212 223 232 248 255 255 261 266 269 273 270 261 258 279 265 230 182 140 148 159 164 149 149 157 163 171 176 176
352 350 348 346 346 344 341 339 332 319 311 303 297 291 288 287 286 284 286 289 287 293 296 298 297 298 322 303 272 268 209 64 37 5 126 157 163 160 156 160 173 180 186 189 188 193 193 198 202 204 224 213 196 198 187 201 213 217 229 226 217 225 231 240 248 251 252 251 254 255 249 232 233 274 247 210 155 138 167 165 159 156 159 162 165 172 175 175
351 350 348 347 345 343 342 341 337 327 314 304 298 290 286 285 284 286 284 285 285 289 295 290 294 308 305 279 267 276 99 72 38 53 122 163 165 164 169 173 175 183 191 189 196 203 201 209 201 205 246 223 196 201 193 208 226 206 224 230 232 238 235 238 247 247 247 241 235 248 248 200 151 241 221 167 147 164 168 167 165 164 166 164 164 169 173 173
349 348 347 347 344 343 343 342 340 334 320 305 299 289 283 282 282 285 281 278 278 285 291 282 290 311 288 271 267 286 97 90 28 58 134 169 170 172 180 181 178 188 192 189 201 204 212 223 194 197 234 200 191 200 199 211 240 209 221 227 232 240 234 234 242 240 242 233 219 236 250 197 171 229 221 130 142 175 168 166 169 170 168 163 162 164 172 170
349 348 346 345 343 342 342 341 340 336 327 309 298 291 281 277 274 276 275 277 274 278 289 275 279 308 283 262 255 267 126 201 316 90 142 167 175 180 187 185 187 197 192 194 201 195 211 215 199 209 200 169 182 189 193 204 229 223 219 232 222 224 230 227 228 228 229 217 189 214 237 209 197 220 207 129 152 172 170 170 166 172 168 162 164 162 168 165
349 347 346 344 343 341 340 338 337 336 332 316 302 296 286 278 271 267 267 277 271 270 288 280 275 281 270 270 238 220 230 242 256 201 167 170 179 189 191 185 192 207 206 210 199 187 199 198 211 223 208 205 184 133 152 180 212 218 214 240 225 219 227 213 210 210 216 204 156 202 233 214 204 208 190 150 171 176 175 176 165 169 166 161 165 160 161 163
347 345 344 343 342 339 338 336 334 335 333 323 306 298 293 283 272 266 263 270 261 255 257 260 271 247 252 276 212 223 249 258 251 218 182 174 172 175 182 184 192 202 210 218 193 186 195 193 225 229 205 240 191 126 178 178 201 213 205 226 231 238 213 181 190 200 205 184 163 210 239 228 203 186 176 167 179 187 185 179 165 165 165 162 162 163 164 168
345 345 342 341 341 338 337 335 332 333 332 327 308 299 293 279 273 263 256 262 256 237 224 240 249 241 262 260 203 254 260 227 222 206 185 178 169 163 170 177 182 183 186 186 172 181 194 195 221 216 179 216 217 186 196 184 197 209 207 214 218 234 190 161 180 199 205 176 177 212 233 237 207 155 159 172 183 194 194 180 167 164 166 163 160 168 173 172
344 343 340 340 340 337 336 333 331 331 330 328 313 305 296 280 279 193 195 241 254 193 183 233 226 239 282 266 143 249 226 191 194 183 182 184 183 167 158 162 164 170 176 168 167 170 186 200 217 246 194 189 201 201 198 189 197 203 216 223 205 213 209 170 174 196 212 182 182 213 234 237 195 130 151 176 187 197 199 184 170 166 165 164 164 171 177 173
342 341 340 338 338 336 336 332 330 328 328 330 322 316 315 325 103 127 150 185 251 191 206 257 238 238 269 269 203 194 162 133 138 158 174 185 193 162 153 158 158 162 163 154 163 166 177 197 197 224 217 204 203 203 203 200 198 193 210 226 205 210 223 187 163 180 203 204 199 210 230 243 206 132 159 182 193 201 204 190 169 166 164 165 171 174 177 176
341 339 337 337 336 335 334 331 329 326 327 331 331 337 8 73 100 117 161 177 190 190 214 243 239 241 229 226 242 174 123 76 132 149 162 167 173 163 159 161 156 158 159 153 169 177 179 195 202 202 198 202 204 203 210 208 201 195 199 215 205 208 226 213 166 162 185 207 216 209 217 237 232 190 176 187 200 206 207 191 169 167 165 167 179 181 177 180
338 337 335 334 334 333 333 330 327 324 326 333 345 13 56 147 150 177 189 191 194 223 259 195 200 265 312 236 245 244 225 157 150 156 158 156 158 163 163 159 159 165 166 161 173 184 185 189 205 212 196 192 200 208 220 223 217 208 198 210 213 198 212 215 160 137 181 209 216 216 220 230 233 218 193 184 197 211 210 188 172 169 166 171 183 186 181 182
337 336 334 332 332 331 330 328 323 319 323 331 327 287 243 226 246 201 186 210 223 253 281 258 225 263 289 278 251 215 180 178 191 176 163 160 155 158 160 162 168 177 179 170 165 175 200 201 200 211 205 192 197 212 250 346 290 226 203 213 220 207 202 202 166 132 183 232 219 220 230 230 235 229 199 179 187 207 208 192 182 176 170 175 183 187 184 183
336 335 332 332 331 329 328 325 320 317 319 319 268 257 278 314 315 340 301 247 235 241 257 261 253 256 263 269 209 169 176 189 197 169 165 169 166 164 160 168 178 180 183 168 145 153 211 216 208 206 199 173 187 209 283 277 245 230 219 213 212 217 210 182 157 139 163 241 228 215 230 233 235 232 191 176 189 202 206 198 191 182 174 176 183 184 182 181
336 334 331 331 328 327 328 322 316 318 315 291 249 262 290 333 341 349 315 281 267 248 244 251 255 252 247 240 212 186 234 213 185 162 166 176 184 185 169 179 192 174 167 166 150 170 206 221 211 182 136 118 156 189 211 223 228 225 221 217 213 211 207 166 142 159 173 234 238 207 229 236 227 220 184 188 203 202 207 206 197 186 178 178 181 181 181 179
334 334 331 329 327 326 326 320 317 315 295 235 253 266 278 13 323 301 273 280 290 262 237 241 241 237 231 227 210 198 224 225 196 169 169 183 195 197 180 187 198 171 165 188 188 188 201 210 192 157 140 164 172 185 204 214 221 224 218 217 213 188 204 198 151 162 177 243 271 243 238 236 209 198 189 202 210 195 199 209 203 192 186 182 177 179 182 180
334 334 331 328 325 325 328 322 315 304 250 241 267 262 236 314 310 285 252 270 287 267 228 229 232 233 226 208 187 193 209 219 208 173 170 187 189 187 194 194 197 182 180 198 204 213 201 105 130 158 173 196 192 189 206 218 215 216 221 226 220 186 216 231 138 151 186 213 249 247 240 224 192 197 193 189 201 195 192 200 199 194 189 182 177 180 183 181
334 332 331 328 324 326 331 322 300 256 261 270 270 240 215 300 314 259 251 277 271 239 181 190 212 219 194 158 170 185 197 208 215 176 169 191 186 173 195 196 202 202 191 195 208 229 201 101 132 179 187 205 208 201 209 222 220 209 214 229 242 219 218 230 152 183 218 201 198 222 238 207 176 194 187 171 192 201 198 201 200 190 184 184 182 181 184 184
333 330 329 327 323 327 333 318 230 274 291 269 240 189 216 310 310 224 249 285 260 209 143 181 201 168 160 167 170 173 190 202 208 176 171 194 193 181 193 183 209 222 190 187 212 241 192 135 176 195 195 208 217 223 209 212 230 216 195 210 231 233 223 229 216 218 234 198 162 213 246 204 167 186 179 170 192 197 197 206 207 193 185 191 188 182 185 184
331 326 325 323 322 329 330 305 294 294 286 243 141 190 302 318 284 205 251 272 251 45 127 167 142 145 159 173 168 169 175 156 161 173 177 189 187 193 209 178 192 223 174 182 216 222 191 178 195 208 212 214 220 224 195 200 230 211 160 193 214 219 218 223 226 229 239 120 143 208 244 233 177 174 162 167 190 193 197 203 206 201 192 194 189 184 188 187
327 324 322 317 315 310 288 287 293 272 269 329 325 301 323 319 219 200 273 277 248 85 140 109 101 148 156 166 180 201 106 136 158 175 178 187 184 195 217 197 200 199 173 198 212 162 186 197 197 203 215 217 217 209 177 196 221 125 123 195 210 211 217 219 225 230 224 224 207 198 221 234 186 153 149 174 190 190 196 200 201 200 195 194 191 188 186 189
325 322 318 314 311 300 265 259 262 254 273 294 288 307 319 285 201 222 270 268 229 140 123 108 135 172 154 161 192 219 235 177 182 154 163 185 196 212 229 214 214 196 177 212 232 114 154 205 210 209 215 209 183 74 176 202 213 80 128 189 191 196 212 216 227 226 199 232 230 182 201 237 189 155 167 186 193 188 187 190 191 193 193 193 191 188 182 186
325 319 317 314 312 302 251 243 255 267 279 277 287 308 296 219 209 236 228 240 270 109 116 161 161 163 160 167 191 203 200 184 135 143 161 180 192 209 242 218 221 210 184 218 243 210 121 128 254 224 229 260 97 69 158 213 219 121 184 183 173 183 194 209 228 231 213 225 214 168 207 249 206 173 172 164 153 125 142 147 131 143 174 181 184 186 183 185
325 321 317 305 285 256 231 242 269 290 277 290 317 305 244 205 225 236 205 244 284 151 139 171 147 157 180 183 190 191 184 148 144 162 169 173 185 196 200 189 209 215 201 214 232 224 201 198 209 211 222 261 187 146 118 188 203 218 207 190 179 184 190 205 206 211 228 225 175 154 207 241 225 172 134 99 76 52 46 78 71 60 76 109 161 186 188 189
326 324 316 292 256 231 238 255 302 297 271 314 327 274 217 201 222 231 206 193 245 173 136 147 139 163 197 201 198 191 185 162 163 175 176 179 187 191 198 195 183 196 209 206 203 205 212 217 212 196 191 217 225 191 148 172 196 214 214 197 193 193 193 208 202 204 225 212 137 153 211 228 216 110 90 78 63 42 27 24 20 24 37 54 102 176 184 186
328 327 313 294 240 226 252 288 292 279 275 296 302 231 212 220 219 219 219 221 170 78 43 88 163 208 213 212 205 192 192 177 170 183 186 189 193 193 203 207 196 205 219 200 193 191 197 211 214 208 190 206 226 219 173 175 190 205 207 199 207 205 195 208 208 209 217 174 120 142 214 220 194 99 66 59 51 36 36 37 31 37 38 43 86 148 168 173
331 325 288 44 349 244 298 310 284 275 274 272 245 204 213 226 220 210 224 231 233 300 292 291 287 275 225 217 203 186 200 194 178 185 186 188 201 200 201 205 206 218 228 194 201 206 205 203 202 207 188 182 208 230 222 189 189 204 210 210 222 225 212 218 222 224 219 184 134 150 200 223 200 109 60 64 66 51 47 49 50 52 56 67 93 114 137 153
337 333 147 66 1 314 323 304 266 247 218 218 216 208 210 215 219 222 228 235 240 250 258 261 274 265 224 211 200 193 212 210 188 196 197 194 205 202 198 202 205 216 226 205 189 208 228 221 174 175 135 176 201 222 229 217 197 196 218 221 226 237 228 221 248 297 254 220 174 176 210 235 158 106 90 100 81 61 52 52 55 52 59 75 86 95 109 126
352 136 150 52 351 325 314 280 230 201 198 209 212 212 213 215 224 229 227 248 245 251 259 246 242 250 231 203 191 192 209 216 192 198 208 205 208 206 204 201 197 207 218 213 183 189 227 216 143 149 175 198 218 216 212 237 216 177 211 218 204 270 250 231 173 91 316 249 202 183 209 166 140 141 118 112 77 57 47 49 55 53 63 78 84 93 104 114
0 172 162 10 348 330 308 239 193 188 200 215 217 220 221 219 226 239 101 48 246 252 262 245 217 237 244 217 194 182 186 196 194 197 206 207 209 210 209 205 198 206 213 220 223 211 230 213 149 178 199 174 214 231 203 243 255 200 211 200 139 67 244 244 235 185 211 236 204 188 214 197 183 179 132 107 55 44 39 43 55 59 67 79 83 88 91 94
311 204 159 11 351 334 298 183 175 185 200 216 223 231 231 221 218 229 225 349 261 252 255 247 218 244 249 232 206 170 176 189 189 196 207 199 192 202 211 210 202 207 215 222 225 203 227 226 157 178 196 144 161 211 200 201 240 267 246 184 178 221 217 210 231 223 212 225 217 203 213 212 206 178 127 90 30 27 29 38 53 60 66 77 83 87 90 92
251 213 141 15 1 4 107 163 176 191 204 211 221 228 230 230 226 228 251 267 261 263 260 251 246 261 252 259 301 150 187 205 191 195 212 198 181 193 226 223 202 205 217 224 220 183 210 235 188 149 150 148 173 207 210 191 191 234 250 201 204 241 235 213 219 227 226 230 223 207 209 210 196 97 83 60 21 12 19 33 52 65 73 82 85 91 97 97
257 226 70 18 0 31 74 166 193 201 203 210 226 224 213 236 240 233 238 254 257 255 265 263 240 247 262 273 284 176 221 250 211 204 213 189 177 147 37 335 206 191 209 227 223 198 190 232 222 145 142 189 197 206 229 215 190 202 214 208 205 211 235 241 226 227 244 241 225 217 217 191 81 51 57 53 19 357 8 41 75 85 90 92 89 92 93 87
277 230 49 11 337 312 333 245 204 201 208 214 237 235 229 277 264 240 218 231 254 250 267 277 261 265 281 270 254 177 234 260 229 217 219 199 196 154 65 3 298 157 178 212 215 205 194 217 221 186 182 210 187 94 344 313 269 228 219 215 215 209 215 232 224 214 233 247 242 235 228 151 70 41 55 55 18 13 87 123 106 98 98 96 91 86 82 78
329 54 26 359 332 274 287 249 187 217 226 215 246 246 265 301 272 262 213 209 236 236 241 260 258 263 265 264 272 268 258 251 227 220 218 201 187 45 45 17 281 164 183 184 171 272 294 227 220 219 218 191 102 85 63 350 323 279 258 239 229 221 220 231 232 209 209 231 245 251 242 121 67 44 59 62 54 87 127 135 113 102 99 98 94 86 79 74
29 59 39 3 342 248 263 256 183 213 223 224 299 250 255 265 253 256 241 216 233 226 224 240 243 251 253 262 272 265 263 258 245 239 211 177 115 55 22 27 138 154 262 143 100 51 312 246 225 223 220 152 114 124 138 78 261 242 240 246 251 239 228 244 261 223 211 220 220 233 230 133 80 54 68 82 84 93 112 116 109 106 101 96 90 82 76 71
32 60 63 19 10 250 256 307 233 222 218 252 257 202 184 222 299 274 243 242 338 252 245 247 236 253 264 269 269 263 266 257 249 259 213 171 118 92 55 115 176 124 33 45 58 143 198 276 250 225 215 198 189 191 183 182 215 228 220 222 291 267 222 241 270 242 238 230 223 234 231 117 93 88 91 91 92 94 97 101 104 102 96 91 84 77 72 70
345 349 95 32 30 42 39 9 330 289 273 260 263 45 176 160 58 8 358 52 28 356 292 278 284 290 273 245 248 252 249 254 263 238 192 161 118 103 74 112 191 177 117 90 46 50 119 4 322 247 230 222 217 213 208 202 191 169 99 69 342 273 223 224 230 233 237 219 220 243 234 113 114 112 98 94 100 101 99 103 105 95 86 83 82 79 73 70
347 13 6 35 45 54 69 48 4 336 331 305 350 10 338 173 108 37 20 50 41 25 13 7 318 261 250 234 228 222 214 229 244 220 181 148 118 98 52 89 138 137 135 131 107 75 79 49 35 38 22 331 339 5 356 321 200 141 110 81 15 318 285 258 234 233 233 213 220 229 139 126 131 123 107 104 108 106 104 107 106 98 88 82 82 83 81 77
19 17 1 350 22 39 51 43 27 14 350 325 331 6 355 49 103 54 27 35 36 22 20 35 26 248 234 236 215 197 172 185 174 110 104 98 107 110 97 105 106 101 125 140 131 119 125 142 77 65 55 25 16 24 12 357 48 74 69 57 25 347 301 262 249 270 265 237 228 148 125 129 132 123 113 111 112 107 104 102 99 97 93 90 91 90 86 82
24 48 13 326 343 27 26 20 27 27 10 359 39 32 29 48 53 36 20 21 38 19 6 47 39 32 56 243 217 173 124 141 111 68 71 88 115 137 137 113 98 113 154 160 162 173 160 163 174 131 91 66 49 44 37 44 65 69 65 58 47 38 20 352 359 350 326 261 193 127 121 118 119 122 115 112 112 106 99 95 92 93 94 95 94 89 84 81
58 79 50 321 4 47 41 10 11 30 23 21 49 37 31 43 46 36 12 0 51 33 18 53 48 39 58 71 139 94 52 71 93 66 34 40 74 152 149 125 99 118 169 161 167 197 166 142 163 155 126 106 85 67 57 55 61 63 60 61 73 79 76 74 61 37 37 68 92 107 106 99 109 123 118 114 112 106 100 96 93 92 92 91 89 85 83 80
32 43 22 72 65 50 55 27 359 34 29 17 34 32 24 31 31 30 28 23 39 27 13 35 41 35 58 67 70 74 42 10 57 52 8 5 28 34 63 91 67 61 168 152 163 209 221 159 166 159 138 130 121 98 75 59 45 31 30 41 70 87 86 78 66 50 55 79 93 100 99 98 111 119 118 120 117 112 107 99 92 90 89 89 86 83 81 77
20 8 315 352 59 21 31 44 19 51 40 21 21 10 12 20 5 2 47 43 37 29 7 3 0 9 62 63 54 49 26 354 349 351 340 339 0 8 17 21 1 330 173 141 170 213 196 164 169 179 176 161 146 122 89 62 28 351 331 22 51 64 73 66 51 25 33 98 121 118 106 116 132 127 124 125 119 112 105 96 92 89 86 85 82 79 76 72
356 87 286 289 58 22 14 46 45 59 52 25 23 0 355 6 356 356 63 46 28 28 11 355 347 356 55 47 26 6 346 326 318 322 320 313 329 353 31 38 17 4 16 62 225 215 179 163 173 199 209 175 152 133 105 89 31 311 256 141 83 84 89 69 53 30 22 44 142 128 104 120 135 136 129 123 115 107 99 94 92 88 83 80 77 74 69 63
Height
807 806 805 804 803 802 801 800 799 798 797 797 796 795 795 794 793 793 792 791 791 790 790 789 788 787 786 786 784 783 781 780 779 779 775 766 764 765 765 765 766 768 770 771 774 774 775 776 776 777 777 776 775 772 773 774 772 776 779 781 777 770 765 761 760 760 757 758 760 760 759 759 758 755 751 750 751 753 757 758 758 757 756 757 761 765 770 775
806 805 804 803 802 801 800 799 798 797 797 796 795 795 794 793 792 791 791 790 790 789 788 788 787 786 785 784 783 782 781 779 777 774 768 762 762 764 764 765 766 767 769 771 772 770 772 773 773 775 774 774 773 772 774 773 773 776 775 777 773 764 759 757 758 758 759 762 762 759 760 759 758 755 752 755 757 755 759 761 759 761 762 763 766 770 772 776
806 805 803 802 801 800 799 798 797 797 796 795 794 794 793 792 792 791 790 790 789 788 787 787 786 785 784 783 782 781 780 778 773 766 762 760 761 762 763 764 765 767 768 770 770 769 769 770 771 772 772 772 771 771 774 772 774 772 772 776 767 759 759 758 760 761 761 763 763 762 760 759 757 753 752 754 757 756 758 760 760 763 765 767 770 771 773 776
805 804 802 801 800 799 798 797 796 796 795 794 793 793 792 792 791 790 789 789 788 787 787 786 785 784 783 782 781 781 781 776 766 759 760 760 759 761 762 763 765 767 768 770 770 770 769 769 770 770 770 771 769 771 772 771 772 770 771 772 762 760 764 760 760 761 761 763 764 763 761 760 757 754 754 754 758 760 755 753 755 758 762 766 770 771 773 776
805 804 802 801 800 798 797 796 795 795 794 793 792 792 791 791 790 790 789 788 787 786 786 785 784 783 782 782 780 781 781 771 760 758 760 759 759 760 762 763 765 767 768 770 770 770 769 769 769 770 771 770 769 772 770 767 768 770 770 766 761 764 766 760 759 763 763 764 765 764 763 760 757 755 756 754 757 757 752 749 750 752 757 763 768 770 773 774
805 803 802 801 799 798 797 796 794 793 793 792 791 791 790 790 789 789 788 787 786 785 784 783 783 782 781 781 780 782 779 766 758 759 759 759 759 760 762 763 765 767 769 769 768 769 769 768 769 771 770 768 769 770 767 764 767 772 767 763 764 765 765 761 760 764 764 766 766 764 762 760 760 758 755 754 753 751 749 749 749 750 755 761 766 770 772 773
804 803 802 801 799 798 796 795 793 792 791 791 790 789 789 788 788 788 786 786 785 784 783 783 782 781 780 780 780 780 775 763 758 760 759 759 760 760 762 763 765 768 768 768 767 767 766 768 769 768 768 767 767 766 764 765 768 771 766 763 765 764 765 762 760 763 764 766 764 761 761 761 762 759 755 755 752 749 750 750 749 750 755 760 766 770 772 772
804 803 801 800 799 797 796 794 793 792 791 790 789 788 788 787 787 786 785 785 784 783 783 782 781 780 780 780 779 773 766 761 758 759 759 759 760 761 763 764 766 767 767 766 765 765 765 767 766 765 767 766 764 764 764 767 769 769 766 763 764 764 764 761 760 762 763 763 761 762 763 761 759 757 756 755 750 749 751 750 750 752 756 761 765 770 771 772
803 802 801 800 798 797 795 794 792 791 790 789 788 788 787 786 786 785 784 784 783 783 782 781 780 780 779 779 777 768 760 759 759 759 758 759 760 761 763 764 766 766 765 765 764 764 764 765 764 763 765 763 763 764 764 769 768 764 763 762 763 763 762 760 760 761 761 760 760 763 763 758 756 757 757 752 749 750 750 751 752 754 759 761 764 769 771 773
803 801 800 799 798 797 795 794 792 790 790 789 788 787 786 785 785 784 783 783 782 782 781 781 780 779 780 779 775 765 758 759 760 759 759 759 760 761 763 764 765 765 764 764 764 764 763 763 761 761 764 762 762 763 763 766 762 758 760 760 762 762 759 759 760 759 759 759 759 762 761 756 757 760 757 750 749 750 750 753 753 755 760 761 764 768 770 773
802 801 799 798 797 796 794 793 791 790 789 788 787 785 784 784 783 783 783 782 781 781 781 780 779 779 780 778 772 762 757 759 760 759 760 760 761 762 762 763 764 764 764 764 764 764 763 762 760 763 765 762 762 763 762 761 758 758 761 762 762 760 759 759 760 758 758 758 756 758 759 757 759 760 754 749 749 750 752 754 754 756 759 761 763 767 770 772
801 800 799 797 796 795 793 792 791 790 788 787 786 784 783 782 782 782 781 781 781 781 780 779 779 779 780 776 768 759 757 759 759 760 760 760 762 762 762 764 764 763 763 763 764 764 765 764 763 764 763 760 762 765 762 758 759 761 762 764 762 760 760 757 756 756 757 757 752 755 763 761 761 758 749 748 749 749 752 755 756 757 758 761 763 766 770 772
801 799 798 797 795 794 793 791 791 789 787 786 784 783 782 780 780 780 780 780 780 780 780 779 779 780 780 771 759 757 757 758 759 759 760 760 762 762 762 764 764 764 763 763 763 764 766 765 764 763 761 760 761 763 761 757 761 763 762 763 760 761 760 751 751 754 756 756 750 757 770 763 755 751 746 747 749 750 754 755 756 758 758 761 763 766 770 772
800 798 797 796 794 793 792 791 790 788 786 785 783 782 780 779 779 778 779 779 779 780 779 779 779 780 778 765 755 756 756 757 758 758 759 760 760 761 762 763 764 764 764 763 763 765 766 765 765 763 761 760 758 760 761 761 763 761 763 764 761 762 756 746 749 754 756 754 749 758 769 757 744 744 745 746 748 750 754 754 755 758 759 761 763 767 770 772
799 798 796 795 793 792 791 790 789 787 785 783 782 781 779 778 778 778 779 779 779 779 778 779 779 779 773 760 754 755 755 756 756 756 757 758 759 759 760 762 763 764 764 764 764 765 766 765 765 763 762 760 760 763 763 763 761 758 766 768 761 760 753 746 748 750 752 752 748 757 765 753 739 741 744 745 747 749 752 754 755 759 760 761 764 768 770 771
798 797 795 794 793 791 790 789 787 786 784 782 781 779 778 777 777 777 778 778 778 778 779 779 778 778 771 757 753 754 753 754 753 755 756 756 757 757 759 761 762 764 764 764 764 765 765 765 764 761 760 762 762 762 761 764 764 759 764 765 758 758 754 749 749 745 746 750 750 755 758 750 741 742 745 745 747 749 751 753 756 759 760 762 765 768 770 771
797 796 794 793 792 790 789 788 786 785 783 781 779 778 778 777 777 777 777 778 778 778 779 777 777 777 767 754 752 753 751 751 752 753 755 756 756 756 758 760 760 762 762 764 765 763 764 764 764 763 761 760 758 757 764 771 768 761 761 758 754 756 753 750 751 745 744 750 752 753 754 749 742 743 746 745 746 748 750 752 756 759 761 763 766 767 769 770
796 795 793 792 790 789 788 787 785 784 782 780 779 778 777 777 777 777 777 778 778 779 778 777 777 774 762 753 751 750 749 751 752 752 754 755 756 756 757 757 758 760 761 763 763 762 764 762 761 762 761 761 758 757 766 767 760 760 761 759 757 756 753 750 749 746 745 750 751 751 754 750 743 743 745 745 745 747 748 750 755 758 761 765 767 767 768 770
795 794 792 791 789 788 787 786 784 783 781 780 778 778 778 777 777 777 778 777 775 771 767 767 768 761 754 751 748 747 748 750 751 752 753 754 755 756 756 757 757 758 760 762 763 761 761 762 764 764 762 762 759 755 756 753 750 753 754 755 755 755 753 747 744 744 745 750 751 750 752 749 745 743 744 745 745 748 748 749 755 758 760 764 766 766 766 769
794 793 791 790 788 787 785 784 783 782 780 779 779 779 776 773 770 770 773 773 766 757 752 753 754 749 748 747 745 746 748 749 750 749 751 752 753 754 754 756 756 757 757 757 761 760 758 764 766 762 757 755 754 752 751 751 751 751 751 753 751 751 750 743 744 746 745 752 750 746 749 747 745 741 740 744 747 749 750 751 755 756 759 762 764 765 765 767
793 792 790 788 787 786 784 783 782 780 779 779 780 777 770 767 766 765 766 761 752 750 749 746 746 746 745 744 744 745 746 747 747 747 750 751 750 752 754 755 757 758 754 752 758 760 761 765 760 753 750 750 753 754 756 758 758 756 755 754 752 752 748 741 745 748 747 754 750 743 748 747 743 740 738 743 748 750 749 751 754 754 757 760 761 763 764 764
792 790 788 788 786 784 783 781 780 779 778 778 778 774 767 766 768 767 766 758 747 745 745 742 743 743 742 744 745 745 747 747 746 746 748 749 749 750 751 753 754 754 753 753 759 764 766 762 752 748 750 754 757 757 759 760 760 759 755 755 755 750 745 744 748 749 749 754 749 743 749 747 740 739 741 744 745 746 745 746 749 751 755 758 759 761 762 763
792 789 788 786 784 783 782 780 779 777 777 777 776 772 768 768 768 768 768 762 748 739 739 740 741 741 741 743 744 746 748 746 745 744 745 748 747 747 749 751 750 749 754 756 757 763 764 755 746 747 753 757 761 761 761 761 760 759 755 756 754 746 747 750 750 750 750 753 750 747 749 744 740 743 745 745 742 743 746 746 746 748 752 755 756 758 760 762
790 788 787 784 783 782 779 779 777 776 776 775 773 770 769 769 768 768 767 759 747 737 735 736 737 738 738 739 740 743 745 742 740 740 742 745 745 745 746 747 747 750 753 752 752 755 753 747 744 749 753 756 761 762 762 762 759 756 754 753 748 744 746 746 748 752 752 755 753 750 752 745 741 746 746 744 745 747 748 748 749 750 751 752 754 756 758 759
789 787 785 783 782 780 779 778 775 775 775 773 771 768 768 768 766 768 765 758 747 736 733 735 735 735 734 736 739 738 740 740 736 736 738 740 741 744 745 742 745 751 751 749 752 751 747 747 748 752 755 754 758 760 759 759 756 754 753 750 745 743 743 743 747 753 755 757 750 749 759 752 739 741 743 743 747 748 747 748 750 750 751 752 754 756 757 758
787 786 783 782 780 778 778 775 774 776 773 769 768 766 768 768 765 767 765 759 748 733 732 735 735 734 732 735 735 734 741 740 732 732 736 738 737 740 745 744 744 747 745 747 752 749 746 749 748 751 755 755 756 756 752 753 755 753 748 745 745 743 744 747 749 752 754 754 747 746 757 756 745 741 740 741 745 745 746 748 747 746 748 750 751 753 755 756
786 784 782 781 779 778 777 774 774 774 769 767 766 766 768 765 765 766 764 764 750 730 730 734 733 733 731 732 731 734 743 737 731 734 734 736 736 737 744 745 746 747 743 749 757 749 744 750 752 752 754 755 755 753 747 749 753 749 739 739 743 742 746 749 748 749 745 745 749 746 746 754 752 742 738 741 745 744 745 747 746 744 745 747 748 751 752 754
784 782 781 779 778 778 776 775 774 771 768 766 765 767 766 764 766 764 766 772 750 726 728 730 730 732 729 731 730 731 733 729 733 737 731 734 736 738 743 742 743 745 742 751 758 747 741 749 751 751 753 752 747 743 741 745 748 743 737 738 739 740 743 743 745 745 740 747 756 745 740 753 753 741 739 743 744 746 745 744 744 743 743 745 746 748 750 752
782 780 778 776 775 775 774 775 773 769 767 765 766 767 764 765 765 759 768 772 742 722 727 728 731 732 729 733 732 730 730 727 731 733 730 735 735 736 742 738 737 741 742 746 748 743 742 744 743 744 747 744 739 738 739 742 744 741 739 739 738 740 741 742 744 741 744 758 760 746 744 754 754 743 741 745 744 743 742 739 740 741 742 744 745 747 748 751
779 778 776 774 774 773 773 772 768 766 766 765 766 765 763 765 763 765 777 766 735 725 728 727 730 730 730 735 734 731 730 729 730 731 733 736 735 735 737 735 736 740 743 744 743 741 741 742 741 740 740 737 737 742 743 741 742 742 740 739 741 742 740 744 741 739 754 766 756 747 746 753 760 748 738 745 747 743 741 741 742 743 743 744 745 746 747 749
776 775 773 772 772 772 772 769 765 764 765 764 764 763 764 762 759 770 774 750 731 729 726 726 729 727 729 734 733 731 730 730 730 732 735 736 737 739 739 740 742 745 748 748 745 741 740 743 742 737 736 737 739 743 745 743 742 743 740 738 746 749 747 750 748 751 767 768 753 746 744 750 762 751 738 744 747 745 747 747 747 748 747 747 747 746 746 747
773 771 770 769 769 770 769 765 764 765 764 764 764 761 761 764 765 767 755 738 737 734 726 729 729 726 729 729 728 729 728 730 730 731 734 735 738 739 739 741 744 750 755 751 746 745 743 740 736 735 736 737 739 742 745 746 744 744 739 739 753 760 763 766 762 762 766 761 752 747 746 753 756 748 743 746 749 749 750 750 750 751 750 749 749 747 747 747
769 768 767 766 766 767 766 764 764 764 763 764 764 758 758 767 767 756 743 736 737 731 725 730 727 725 730 729 727 725 725 729 728 728 730 731 736 737 734 732 732 742 749 745 745 748 747 740 733 736 737 734 736 739 745 747 745 745 740 742 753 760 774 780 769 763 762 758 752 747 752 757 751 747 748 749 752 751 749 750 751 751 752 751 750 748 748 748
766 765 765 764 764 764 764 764 763 762 763 764 762 758 762 768 757 745 742 735 729 726 727 729 728 727 728 727 724 721 726 729 724 726 729 730 737 738 734 732 730 732 738 742 746 745 750 748 736 735 734 730 733 732 732 735 738 738 729 733 744 747 761 773 764 758 759 757 756 755 759 756 750 753 752 749 750 749 747 749 749 750 750 750 750 749 750 750
763 763 763 763 764 763 762 762 761 761 763 761 758 758 762 763 750 741 740 731 725 728 727 727 729 730 727 723 721 718 723 726 723 725 728 729 735 735 733 734 731 731 735 744 747 741 747 744 727 728 730 726 730 726 721 727 736 735 726 732 743 736 739 758 763 761 760 759 760 760 755 746 746 752 749 747 749 748 749 749 748 751 750 750 752 751 752 753
762 762 763 763 763 762 760 760 759 761 761 758 757 756 753 749 741 736 733 729 729 731 730 729 729 730 727 722 722 721 720 723 724 727 728 726 727 727 727 727 727 730 733 739 743 742 748 742 725 729 733 726 728 726 722 730 736 737 736 739 736 726 730 752 766 766 767 767 761 756 754 747 750 754 747 746 750 749 752 751 751 754 753 753 754 754 755 755
762 762 761 762 762 760 758 757 758 760 759 756 755 751 743 737 733 731 731 731 732 730 732 734 729 729 729 723 721 721 722 724 724 727 730 727 725 722 722 722 721 725 726 729 734 735 740 741 729 727 733 730 729 729 727 728 729 736 741 735 729 731 735 745 760 766 769 771 762 755 757 754 755 758 751 749 754 755 756 755 755 757 756 756 757 757 758 758
762 761 760 761 760 757 756 756 758 758 756 755 754 748 741 736 733 732 733 733 733 731 734 735 730 729 729 726 723 720 723 727 725 726 728 727 727 722 720 722 720 720 720 723 731 731 734 742 735 726 730 731 728 731 734 731 727 731 732 724 730 748 750 747 759 767 769 772 765 757 756 750 748 754 755 757 762 763 762 760 760 761 760 760 760 760 762 763
760 758 758 760 760 756 755 756 757 755 754 755 754 747 741 738 735 734 735 734 734 735 735 733 731 731 729 728 727 724 725 725 721 724 725 725 728 725 720 722 721 719 719 719 726 729 732 744 744 731 729 731 729 732 736 734 731 731 729 724 729 741 745 744 749 753 760 767 764 762 760 750 748 757 762 767 768 768 768 766 764 764 764 763 763 764 765 767
758 755 756 761 761 758 757 757 756 753 752 751 748 743 741 739 736 735 735 735 735 735 735 734 733 734 731 729 728 727 728 725 720 722 722 720 726 731 727 724 723 724 724 721 723 727 732 743 746 736 732 735 733 731 729 729 730 733 735 735 735 737 738 741 742 741 748 756 760 767 764 754 761 771 770 772 773 771 772 770 766 765 765 767 768 768 768 770
755 753 757 761 760 758 759 756 752 749 747 746 745 742 742 741 738 735 734 736 735 733 733 735 734 734 733 732 729 727 730 728 723 723 722 719 722 729 731 729 728 728 729 729 727 728 733 740 741 738 736 736 732 728 727 727 726 728 731 730 732 735 739 749 752 743 741 746 750 757 757 759 773 778 773 776 776 773 773 769 766 768 769 772 774 774 775 776
754 755 760 761 759 758 757 752 749 748 746 744 744 743 743 742 740 737 735 736 736 733 734 736 735 734 734 732 730 728 729 728 725 724 723 720 723 728 731 731 729 726 728 731 731 731 733 735 737 738 733 730 731 730 730 731 728 728 728 723 723 727 733 747 753 745 743 744 743 747 753 766 780 779 775 779 776 772 770 767 769 773 775 776 779 780 781 781
756 759 761 760 758 757 755 750 748 749 746 743 743 743 743 743 741 738 736 737 736 735 736 735 734 734 734 732 731 730 729 729 725 723 721 721 727 733 733 731 729 726 726 730 734 736 737 736 738 738 731 726 730 730 729 731 731 731 729 726 727 727 728 735 737 737 744 746 746 752 757 769 783 780 776 777 774 771 769 767 773 778 779 781 783 783 783 783
759 759 759 759 757 755 755 753 751 750 748 747 747 745 744 744 743 741 739 740 739 738 739 736 735 736 735 734 734 731 732 733 729 725 723 723 729 734 733 732 731 729 731 736 737 737 742 744 742 743 743 741 740 737 736 735 733 733 734 736 738 733 732 737 734 736 744 742 743 750 755 769 783 780 776 777 777 778 776 775 778 780 782 785 785 786 786 786
759 759 758 759 758 757 759 762 760 756 753 752 751 750 747 745 746 744 742 743 743 741 741 739 738 739 736 735 737 733 732 736 734 729 726 726 728 731 731 731 730 731 735 738 735 737 748 755 750 749 751 753 751 748 746 741 735 737 742 746 746 741 739 741 739 743 749 743 740 743 753 775 785 780 781 784 783 786 785 783 783 784 787 788 787 789 790 789
760 761 760 759 759 759 762 766 765 761 758 758 757 755 751 748 747 746 744 746 745 744 743 741 741 741 739 738 738 736 734 735 734 731 729 728 730 732 731 729 729 732 736 737 737 742 755 762 758 756 756 756 754 753 751 745 739 741 746 748 750 749 747 742 739 742 742 741 743 742 752 777 785 782 789 792 789 793 792 789 789 789 791 792 791 793 793 793
764 768 769 766 764 763 763 765 768 768 765 762 762 760 755 750 749 748 746 747 747 746 745 743 741 742 743 741 739 739 738 734 734 736 734 732 732 733 732 729 730 735 739 738 738 744 757 766 765 765 766 762 757 753 752 748 746 749 751 752 753 753 751 748 746 744 737 738 747 748 753 773 783 788 797 797 794 797 796 795 794 793 794 795 795 795 795 796
768 773 775 773 771 770 771 772 773 774 771 765 763 763 759 755 755 756 753 749 747 747 747 747 746 743 744 744 741 742 743 739 741 744 740 737 735 734 733 730 730 735 736 737 738 739 749 762 766 766 769 767 761 756 753 750 751 753 754 756 757 755 754 756 757 755 747 744 750 753 760 774 785 796 803 800 798 799 799 799 797 796 797 797 797 798 798 798
771 773 775 774 773 775 778 780 779 777 775 769 766 767 766 762 762 761 758 753 750 749 749 752 751 745 743 742 741 746 750 747 749 751 748 745 740 736 736 735 733 732 730 734 738 736 741 757 762 758 763 767 764 762 760 757 756 756 755 757 757 757 759 761 762 762 758 756 757 762 774 786 793 799 803 801 800 800 800 800 799 799 800 799 799 801 801 802
774 776 776 772 773 776 778 781 781 779 779 775 773 774 772 770 769 765 762 761 761 758 755 755 754 748 744 745 746 752 758 756 755 756 755 752 747 741 742 743 739 735 731 734 738 735 742 757 757 751 758 766 763 763 765 763 762 761 760 759 757 757 760 761 763 766 765 767 772 777 789 799 800 799 801 802 801 800 800 801 801 802 802 803 804 804 805 806
781 782 780 774 776 779 777 778 778 779 784 785 786 786 781 778 777 771 765 765 766 765 763 760 757 751 746 749 753 757 761 760 759 758 756 754 752 749 748 747 745 742 736 737 740 736 739 754 756 750 757 763 764 767 768 766 768 768 766 766 766 766 767 768 772 773 770 772 776 777 785 798 802 801 802 802 801 801 803 804 805 806 806 806 808 808 809 810
783 783 781 776 777 781 777 775 775 778 787 792 791 793 791 787 781 774 770 769 766 766 767 763 759 753 751 756 760 761 762 762 759 758 757 756 754 752 751 749 748 747 742 741 742 737 737 748 753 749 751 758 764 767 766 768 774 774 770 774 777 776 777 778 780 782 779 776 774 772 781 795 801 801 801 802 803 804 806 808 810 811 811 811 812 812 814 815